Inquirer Daily News

Weather

Get conditions and forecasts for any City, State, ZIP code or Country:  
Trenton, NJ
on Tuesday, February 26, 2013

Tuesday
Previous Day Next Day
Daily Summary
 ActualAverageRecord
Temperature
Mean Temperature °F 36°F  
Max Temperature 45°F 45°F 70°F (1890)
Min Temperature 26°F 28°F 5°F (1990)
Degree Days
Heating Degree Days 29 29  
Month to date heating degree days 849 811  
Since 1 July heating degree days 3557 3757  
Cooling Degree Days 0 0  
Month to date cooling degree days 0 0  
Year to date cooling degree days 0 0  
Moisture
Dew Point 29°F   
Average Humidity 73    
Maximum Humidity 92    
Minimum Humidity 53    
Precipitation
Precipitation 0.24 in 0.09 in 1.46 in (1929)
Month to date precipitation 1.53 2.11  
Year to date precipitation 4.35 5.27  
Wind
Wind Speed 10 mph   
Max Wind Speed 24 mph   
Max Gust Speed 35 mph   
Visibility 9 miles   
Events Rain   

Key: T is trace of precipitation, MM is missing value
Source: NWS Daily Summary
Time(EST)TemperatureDew PointHumidity Pressure Visibility Wind DirectionWind SpeedGust SpeedPrecipitationEvents Conditions
12:53 AM 28.0°F 23.0°F 81% 30.22 in 10.0 miles SSW 4.6 mph - N/A   Clear
1:53 AM 28.0°F 24.1°F 85% 30.23 in 10.0 miles North 3.5 mph - N/A   Clear
2:53 AM 28.0°F 24.1°F 85% 30.23 in 10.0 miles North 3.5 mph - N/A   Partly Cloudy
3:53 AM 27.0°F 23.0°F 85% 30.23 in 9.0 miles Calm Calm - N/A   Clear
4:53 AM 27.0°F 23.0°F 85% 30.22 in 10.0 miles Calm Calm - N/A   Clear
5:53 AM 28.0°F 24.1°F 85% 30.22 in 10.0 miles Calm Calm - N/A   Clear
6:53 AM 28.9°F 25.0°F 85% 30.23 in 10.0 miles Calm Calm - N/A   Clear
7:53 AM 32.0°F 26.1°F 79% 30.24 in 9.0 miles ENE 3.5 mph - N/A   Clear
8:53 AM 36.0°F 28.9°F 76% 30.25 in 8.0 miles East 6.9 mph - N/A   Clear
9:53 AM 39.0°F 30.0°F 70% 30.25 in 9.0 miles ESE 5.8 mph - N/A   Clear
10:53 AM 42.1°F 30.0°F 62% 30.24 in 10.0 miles SE 10.4 mph - N/A   Clear
11:53 AM 44.1°F 28.9°F 55% 30.21 in 10.0 miles SE 12.7 mph - N/A   Mostly Cloudy
12:53 PM 45.0°F 30.0°F 56% 30.19 in 10.0 miles SSE 15.0 mph - N/A   Overcast
1:53 PM 44.1°F 30.0°F 58% 30.17 in 10.0 miles SSE 12.7 mph 20.7 mph N/A   Overcast
2:53 PM 42.1°F 30.0°F 62% 30.14 in 10.0 miles ESE 13.8 mph - N/A   Overcast
3:36 PM 41.0°F 28.4°F 61% 30.14 in 10.0 miles SE 15.0 mph - N/A   Overcast
3:53 PM 41.0°F 28.9°F 62% 30.12 in 10.0 miles ESE 13.8 mph 20.7 mph N/A   Overcast
4:53 PM 39.9°F 30.0°F 68% 30.09 in 10.0 miles East 12.7 mph - N/A   Overcast
5:53 PM 39.9°F 30.9°F 70% 30.06 in 10.0 miles ESE 13.8 mph 23.0 mph N/A   Overcast
6:53 PM 39.0°F 30.9°F 73% 30.04 in 10.0 miles ESE 16.1 mph 25.3 mph N/A   Overcast
7:12 PM 39.2°F 30.2°F 70% 30.03 in 10.0 miles ESE 16.1 mph 24.2 mph N/A   Overcast
7:53 PM 37.9°F 32.0°F 79% 29.99 in 9.0 miles ESE 18.4 mph 27.6 mph 0.00 in Rain Light Rain
8:00 PM 37.4°F 32.0°F 81% 29.98 in 8.0 miles ESE 17.3 mph 27.6 mph 0.00 in Rain Light Rain
8:53 PM 37.0°F 33.1°F 86% 29.92 in 10.0 miles ESE 21.9 mph 29.9 mph 0.02 in Rain Light Rain
9:53 PM 37.0°F 34.0°F 89% 29.90 in 4.0 miles East 16.1 mph 26.5 mph 0.08 in Rain Light Rain
10:08 PM 37.4°F 33.8°F 87% 29.89 in 7.0 miles East 16.1 mph 31.1 mph 0.01 in Rain Light Rain
10:53 PM 37.0°F 35.1°F 93% 29.82 in 8.0 miles East 18.4 mph 33.4 mph 0.02 in Rain Light Rain
11:53 PM 37.9°F 35.1°F 89% 29.81 in 4.0 miles East 15.0 mph 26.5 mph 0.11 in Rain Light Rain
Astronomy
Sunrise:06:36 AM (EST) Moon Rise:07:02 PM (EST)2/26
Sunset:05:47 PM (EST) Moon Set:06:38 AM (EST)2/26
Moon Phase
Feb. 26 Mar. 04 Mar. 11 Mar. 19 Mar. 27

Copyright © 2014 The Weather Underground, Inc.